DW8534 Weather Reports


Display with metric or nautical units.
time (UTC)temp
F
wind
direction
speed
MPH
gust
MPH
rain 1hr
in
rain 24hr
in
rain mn
in
humidity
%
barometer
mb
20260906201503 97 108 4.0 0.0 0.00 0.00 0.00 44 1007.6
20260906200002 97 65 5.0 0.0 0.00 0.00 0.00 44 1007.8
20260906194502 97 107 6.0 0.0 0.00 0.00 0.00 44 1008.0
20260906193059 97 106 4.0 0.0 0.00 0.00 0.00 45 1008.1
20260906191558 95 94 3.0 0.0 0.00 0.00 0.00 48 1008.2
20260906190055 96 91 5.0 0.0 0.00 0.00 0.00 48 1008.5
20260906184555 95 66 7.0 0.0 0.00 0.00 0.00 49 1008.6
20260906183053 95 103 4.0 0.0 0.00 0.00 0.00 49 1008.8
20260906181558 95 113 7.0 0.0 0.00 0.00 0.00 50 1009.0
20260906180052 93 112 4.0 0.0 0.00 0.00 0.00 52 1009.1
20260906174550 93 98 3.0 0.0 0.00 0.00 0.00 52 1009.4
20260906173057 93 67 6.0 0.0 0.00 0.00 0.00 53 1009.7
20260906171549 93 59 6.0 0.0 0.00 0.00 0.00 53 1009.9
20260906170044 92 62 5.0 0.0 0.00 0.00 0.00 56 1010.2
20260906164540 91 81 5.0 0.0 0.00 0.00 0.00 58 1010.2
20260906163039 91 71 5.0 0.0 0.00 0.00 0.00 59 1010.2
20260906161538 90 63 4.0 0.0 0.00 0.00 0.00 62 1010.3
20260906160038 89 65 4.0 0.0 0.00 0.00 0.00 65 1010.3
20260906154540 88 71 3.0 0.0 0.00 0.00 0.00 67 1010.3
20260906153028 87 92 2.0 0.0 0.00 0.00 0.00 70 1010.3
20260906151523 85 113 2.0 0.0 0.00 0.00 0.00 72 1010.1
20260906150022 84 103 2.0 0.0 0.00 0.00 0.00 74 1010.2
20260906144517 83 81 3.0 0.0 0.00 0.00 0.00 77 1010.3
20260906143012 82 94 2.0 0.0 0.00 0.00 0.00 79 1010.1
20260906141510 81 100 2.0 0.0 0.00 0.00 0.00 82 1010.0
20260906140010 80 114 3.0 0.0 0.00 0.00 0.00 84 1010.0
20260906134508 79 100 3.0 0.0 0.00 0.00 0.00 86 1009.8
20260906133007 77 99 2.0 0.0 0.00 0.00 0.00 89 1009.8
20260906131509 76 105 0.0 0.0 0.00 0.00 0.00 90 1009.8
20260906130015 76 105 1.0 0.0 0.00 0.00 0.00 90 1009.7
20260906124505 75 105 1.0 0.0 0.00 0.00 0.00 90 1009.3
20260906123011 75 105 1.0 0.0 0.00 0.00 0.00 90 1009.2
20260906121505 75 105 0.0 0.0 0.00 0.00 0.00 90 1009.3
20260906120002 75 105 2.0 0.0 0.00 0.00 0.00 89 1009.2
20260906114502 75 105 1.0 0.0 0.00 0.00 0.00 89 1009.2
20260906113002 75 105 2.0 0.0 0.00 0.00 0.00 89 1009.1
20260906111600 76 107 1.0 0.0 0.00 0.00 0.00 87 1008.9
20260906110100 76 108 1.0 0.0 0.00 0.00 0.00 87 1008.7
20260906104557 76 108 0.0 0.0 0.00 0.00 0.00 87 1008.7
20260906103057 76 108 1.0 0.0 0.00 0.00 0.00 87 1008.6
20260906101555 77 108 2.0 0.0 0.00 0.00 0.00 86 1008.5
20260906100053 77 111 2.0 0.0 0.00 0.00 0.00 85 1008.2
20260906094554 77 111 0.0 0.0 0.00 0.00 0.00 85 1008.1
20260906093107 77 111 1.0 0.0 0.00 0.00 0.00 85 1008.1
20260906091550 78 111 0.0 0.0 0.00 0.00 0.00 84 1007.9
20260906090049 78 111 0.0 0.0 0.00 0.00 0.00 84 1007.9
20260906084549 78 111 0.0 0.0 0.00 0.00 0.00 84 1007.9
20260906083050 78 111 0.0 0.0 0.00 0.00 0.00 84 1007.7
20260906081552 78 111 1.0 0.0 0.00 0.00 0.00 83 1008.1
20260906080048 78 111 0.0 0.0 0.00 0.00 0.00 83 1008.1
20260906074546 78 111 0.0 0.0 0.00 0.00 0.00 84 1008.1
20260906073046 78 111 0.0 0.0 0.00 0.00 0.00 84 1008.1
20260906071557 78 111 0.0 0.0 0.00 0.00 0.00 84 1008.1
20260906070043 78 111 1.0 0.0 0.00 0.00 0.00 84 1008.4
20260906064543 79 111 1.0 0.0 0.00 0.00 0.00 84 1008.5
20260906063041 79 107 1.0 0.0 0.00 0.00 0.00 83 1008.6
20260906061541 80 106 1.0 0.0 0.00 0.00 0.00 83 1008.7
20260906060036 80 106 2.0 0.0 0.00 0.00 0.00 82 1008.6
20260906054535 80 106 1.0 0.0 0.00 0.00 0.00 81 1008.6
20260906053038 80 106 1.0 0.0 0.00 0.00 0.00 81 1008.5
20260906051539 81 106 0.0 0.0 0.00 0.00 0.00 80 1008.6
20260906050053 81 106 1.0 0.0 0.00 0.00 0.00 79 1008.5
20260906044531 82 106 1.0 0.0 0.00 0.00 0.00 78 1008.4
20260906043032 82 105 2.0 0.0 0.00 0.00 0.00 77 1008.2
20260906041531 82 104 2.0 0.0 0.00 0.00 0.00 76 1008.5
20260906040033 83 108 1.0 0.0 0.00 0.00 0.00 76 1008.4
20260906034539 83 109 2.0 0.0 0.00 0.00 0.00 74 1008.2
20260906033030 84 110 2.0 0.0 0.00 0.00 0.00 73 1008.3
20260906031534 84 111 2.0 0.0 0.00 0.00 0.00 72 1008.4
20260906030028 84 112 2.0 0.0 0.00 0.00 0.00 71 1008.3
20260906024528 85 111 3.0 0.0 0.00 0.00 0.00 70 1008.5
20260906023030 85 106 3.0 0.0 0.00 0.00 0.00 69 1008.1
20260906021527 85 105 2.0 0.0 0.00 0.00 0.00 68 1007.9
20260906020029 86 111 3.0 0.0 0.00 0.00 0.00 67 1007.6
20260906014532 86 115 4.0 0.0 0.00 0.00 0.00 66 1007.5
20260906013026 86 124 4.0 0.0 0.00 0.00 0.00 65 1007.1
20260906011526 87 119 5.0 0.0 0.00 0.00 0.00 65 1007.0
20260906010025 87 129 5.0 0.0 0.00 0.00 0.00 64 1007.1
20260906004525 88 107 9.0 0.0 0.00 0.00 0.00 63 1007.0
20260906003024 89 110 9.0 0.0 0.00 0.00 0.00 59 1007.0
20260906001524 91 102 11.0 0.0 0.00 0.00 0.00 56 1006.8
20260906000028 96 103 5.0 0.0 0.00 0.00 0.00 44 1006.5
20260905234522 97 107 3.0 0.0 0.00 0.00 0.00 43 1006.3
20260905233026 96 103 4.0 0.0 0.00 0.00 0.00 42 1006.0
20260905231522 96 120 5.0 0.0 0.00 0.00 0.00 43 1006.3
20260905230021 98 108 4.0 0.0 0.00 0.00 0.00 42 1006.1
20260905224520 98 132 2.0 0.0 0.00 0.00 0.00 40 1006.0
20260905223020 98 95 5.0 0.0 0.00 0.00 0.00 40 1006.0
20260905221520 97 101 7.0 0.0 0.00 0.00 0.00 41 1006.1
20260905220019 97 94 2.0 0.0 0.00 0.00 0.00 41 1006.2
20260905214519 99 132 2.0 0.0 0.00 0.00 0.00 38 1006.4
20260905213018 98 77 2.0 0.0 0.00 0.00 0.00 40 1006.5
20260905211516 98 84 3.0 0.0 0.00 0.00 0.00 40 1006.7
20260905210015 100 143 3.0 0.0 0.00 0.00 0.00 39 1006.7
20260905204514 99 207 3.0 0.0 0.00 0.00 0.00 40 1007.0
20260905203015 98 75 3.0 0.0 0.00 0.00 0.00 40 1007.3